Location: Boca do Mato
(22.9085°S, 43.2930°W)
Time: 22:32:09
(UTC+00:00)

Cosmos 1340 Rocket - Pass Details

Date: 14 July 2020
Orbit: 528 x 560 km, 81.2° (Epoch: 10 August)

Event Time Altitude Azimuth Distance (km) Brightness Sun altitude
Exits shadow 08:49:51 - 202° (SSW) 2,418 5.7 -10.2°
Reaches altitude 10° 08:51:22 10° 209° (SSW) 1,845 5.1 -9.9°
Maximum altitude 08:55:01 33° 273° (W) 952 3.6 -9.1°
Drops below altitude 10° 08:58:40 10° 337° (NNW) 1,836 5.5 -8.3°
Sets 09:00:59 0° 347° (NNW) 2,726 6.5 -7.8°
